Location: ??
(34.7707°N, 135.6540°E)
Time: 18:43:14
(UTC+00:00)

CZ-2C R/B - Pass Details

Date: 09 April 2020
Orbit: 501 x 568 km, 97.7° (Epoch: 05 June)

Event Time Altitude Azimuth Distance (km) Brightness Sun altitude
Rises 18:12:06 0° 11° (N) 2,759 7.0 -27.5°
Reaches altitude 10° 18:14:15 10° 11° (NNE) 1,852 6.0 -27.1°
Enters shadow 18:16:51 39° 11° (N) 841 4.0 -26.7°
